Home   Weather   Abu Dhabi   Past weeks
Flag for United Arab Emirates

Past Weather in Abu Dhabi, Abu Dhabi, United Arab Emirates — Yesterday and Last 2 Weeks

Now
102 °F

Clear.


Feels Like: 133 °F
Forecast: 98 / 91 °F
Wind: 13 mph from North

Location: Abu Dhabi Bateen Airport

Current Time: Jul 20, 2019 at 3:46:50 pm

Latest Report: Jul 20, 2019 at 3:00 pm


Visibility: 4 mi

Pressure: 29.45 "Hg

Humidity: 57%

Dew Point: 84 °F

Location of Abu DhabiLocation

Past Weather in Abu Dhabi — Graph

°F

Abu Dhabi Temperature Yesterday

Maximum temperature yesterday: 99 °F (at 11:00 am)
Minimum temperature yesterday: 88 °F (at 6:00 am)
Average temperature yesterday: 94 °F

High & Low Weather Summary for the Past Weeks

 TemperatureHumidityPressure
High108 °F (Jul 10, 1:00 pm)89% (Jul 8, 7:00 am)29.50 "Hg (Jul 8, 7:00 am)
Low86 °F (Jul 11, 6:00 am)19% (Jul 10, 5:00 pm)29.30 "Hg (Jul 5, 4:00 pm)
Average96 °F57%29.40 "Hg
* Reported Jul 5 2:00 pm — Jul 20 2:00 pm, Abu Dhabi. Weather by CustomWeather, © 2019

Note: Actual official high and low records may vary slightly from our data, if they occured in-between our weather recording intervals... More about our weather records

Advertising

Abu Dhabi Weather History for the Previous 24 Hours

Scroll right to see more
 ConditionsComfort  
Time TempWeatherWind HumidityBarometerVisibility
2:00 pm
Sat, Jul 20
102 °FClear.12 mph57%29.45 "Hg4 mi
1:00 pm106 °FClear.6 mph30%29.47 "Hg4 mi
12:00 pm104 °FClear.5 mph33%29.47 "Hg4 mi
11:00 am102 °FClear.5 mph45%29.50 "Hg5 mi
10:00 am102 °FClear.5 mph37%29.50 "Hg5 mi
9:00 am97 °FClear.5 mph53%29.47 "Hg4 mi
8:00 am95 °FClear.6 mph63%29.47 "Hg4 mi
7:00 am91 °FClear.6 mph80%29.47 "Hg4 mi
6:00 am91 °FClear.5 mph75%29.45 "Hg5 mi
5:00 am93 °FClear.6 mph63%29.45 "Hg5 mi
4:00 am93 °FClear.5 mph75%29.42 "Hg4 mi
3:00 am93 °FClear.5 mph75%29.45 "Hg5 mi
2:00 am93 °FClear.6 mph75%29.42 "Hg4 mi
1:00 am93 °FClear.8 mph75%29.42 "Hg4 mi
12:00 am93 °FClear.8 mph80%29.45 "Hg4 mi
11:00 pm
Fri, Jul 19
93 °FClear.7 mph80%29.45 "Hg4 mi
10:00 pm93 °FClear.6 mph80%29.47 "Hg5 mi
9:00 pm93 °FPassing clouds.6 mph75%29.47 "Hg5 mi
8:00 pm93 °FClear.9 mph71%29.45 "Hg6 mi
7:00 pm93 °FSunny.10 mph71%29.42 "Hg10 mi
6:00 pm95 °FPassing clouds.9 mph67%29.42 "HgN/A
5:00 pm97 °FPassing clouds.13 mph63%29.39 "HgN/A
4:00 pm97 °FClear.13 mph63%29.39 "Hg6 mi
3:00 pm99 °FClear.13 mph60%29.42 "Hg6 mi
Weather by CustomWeather, © 2019

See weather overview